Time,TemperatureF,DewpointF,PressureIn,WindDirection,WindDirectionDegrees,WindSpeedMPH,WindSpeedGustMPH,Humidity,HourlyPrecipIn,Conditions,Clouds,dailyrainin,SoftwareType,DateUTC
2013-05-26 00:03:00,41.8,40.4,32.12,WSW,247,0.4,0.9,95,0.00,,,0.00,WUHU216HW,2013-05-26 04:03:00,
2013-05-26 00:18:00,41.9,40.6,32.12,WNW,299,0.9,2.7,95,0.00,,,0.00,WUHU216HW,2013-05-26 04:18:00,
2013-05-26 00:33:00,41.6,40.2,32.11,WNW,302,1.0,3.4,95,0.01,,,0.01,WUHU216HW,2013-05-26 04:33:00,
2013-05-26 00:48:00,41.6,40.2,32.11,NW,310,1.3,3.6,95,0.01,,,0.01,WUHU216HW,2013-05-26 04:48:00,
2013-05-26 01:03:00,41.4,40.1,32.11,WNW,293,1.3,3.4,95,0.02,,,0.02,WUHU216HW,2013-05-26 05:03:00,
2013-05-26 01:18:00,41.6,40.2,32.11,NW,307,0.9,2.9,95,0.02,,,0.02,WUHU216HW,2013-05-26 05:18:00,
2013-05-26 01:33:00,41.4,40.1,32.10,WNW,290,1.1,4.3,95,0.01,,,0.02,WUHU216HW,2013-05-26 05:33:00,
2013-05-26 01:48:00,41.4,40.1,32.10,WNW,302,1.0,2.5,95,0.02,,,0.03,WUHU216HW,2013-05-26 05:48:00,
2013-05-26 02:03:00,41.4,40.1,32.10,WNW,299,1.1,3.6,95,0.01,,,0.03,WUHU216HW,2013-05-26 06:03:00,
2013-05-26 02:18:00,41.4,40.1,32.10,WNW,292,0.8,3.1,95,0.02,,,0.04,WUHU216HW,2013-05-26 06:18:00,
2013-05-26 02:33:00,41.4,40.1,32.09,WNW,294,1.0,3.6,95,0.02,,,0.04,WUHU216HW,2013-05-26 06:33:00,
2013-05-26 02:48:00,41.4,40.1,32.09,West,278,0.5,1.3,95,0.01,,,0.04,WUHU216HW,2013-05-26 06:48:00,
2013-05-26 03:03:00,41.4,40.1,32.09,ESE,105,0.4,0.7,95,0.00,,,0.04,WUHU216HW,2013-05-26 07:03:00,
2013-05-26 03:18:00,41.2,39.9,32.09,East,79,0.5,1.1,95,0.00,,,0.04,WUHU216HW,2013-05-26 07:18:00,
2013-05-26 03:33:00,41.2,39.9,32.09,NNE,15,0.5,0.9,95,0.00,,,0.04,WUHU216HW,2013-05-26 07:33:00,
2013-05-26 03:48:00,41.2,39.9,32.09,NW,319,0.7,2.5,95,0.00,,,0.04,WUHU216HW,2013-05-26 07:48:00,
2013-05-26 04:03:00,41.2,39.9,32.09,WNW,301,0.5,1.3,95,0.00,,,0.04,WUHU216HW,2013-05-26 08:03:00,
2013-05-26 04:18:00,41.4,40.1,32.09,WNW,295,0.7,1.6,95,0.00,,,0.04,WUHU216HW,2013-05-26 08:18:00,
2013-05-26 04:33:00,41.4,40.1,32.09,WNW,296,0.6,1.1,95,0.00,,,0.04,WUHU216HW,2013-05-26 08:33:00,
2013-05-26 04:48:00,41.4,40.1,32.10,WNW,287,1.0,2.7,95,0.00,,,0.04,WUHU216HW,2013-05-26 08:48:00,
2013-05-26 05:03:00,41.4,40.1,32.10,NNW,347,0.5,1.6,95,0.00,,,0.04,WUHU216HW,2013-05-26 09:03:00,
2013-05-26 05:18:00,41.2,39.9,32.10,NE,51,0.4,0.7,95,0.00,,,0.04,WUHU216HW,2013-05-26 09:18:00,
2013-05-26 05:33:00,41.0,39.7,32.11,SW,226,0.5,1.8,95,0.00,,,0.04,WUHU216HW,2013-05-26 09:33:00,
2013-05-26 05:48:00,40.7,39.3,32.11,NW,310,0.9,4.7,95,0.00,,,0.04,WUHU216HW,2013-05-26 09:48:00,
2013-05-26 06:03:00,40.5,39.2,32.12,West,278,0.8,3.4,95,0.00,,,0.04,WUHU216HW,2013-05-26 10:03:00,
2013-05-26 06:18:00,40.3,39.0,32.12,WNW,299,1.2,4.9,95,0.00,,,0.04,WUHU216HW,2013-05-26 10:18:00,
2013-05-26 06:33:00,40.0,38.3,32.13,WNW,300,1.4,5.4,94,0.00,,,0.04,WUHU216HW,2013-05-26 10:33:00,
2013-05-26 06:49:00,40.3,38.7,32.13,SW,221,0.6,2.0,94,0.00,,,0.04,WUHU216HW,2013-05-26 10:49:00,
2013-05-26 07:04:00,40.7,39.3,32.13,ESE,115,0.6,1.6,95,0.00,,,0.04,WUHU216HW,2013-05-26 11:04:00,
2013-05-26 07:19:00,40.9,39.5,32.14,SE,136,0.6,1.6,95,0.00,,,0.04,WUHU216HW,2013-05-26 11:19:00,
2013-05-26 07:34:00,41.0,39.7,32.14,SW,217,0.7,1.6,95,0.00,,,0.04,WUHU216HW,2013-05-26 11:34:00,
2013-05-26 07:49:00,41.0,39.7,32.14,East,81,0.5,1.1,95,0.00,,,0.04,WUHU216HW,2013-05-26 11:49:00,
2013-05-26 08:04:00,41.6,40.2,32.14,ESE,102,0.5,1.6,95,0.00,,,0.04,WUHU216HW,2013-05-26 12:04:00,
2013-05-26 08:19:00,43.4,41.8,32.15,West,280,1.3,4.0,94,0.00,,,0.04,WUHU216HW,2013-05-26 12:19:00,
2013-05-26 08:34:00,43.6,41.9,32.15,NE,43,1.0,2.2,94,0.00,,,0.04,WUHU216HW,2013-05-26 12:34:00,
2013-05-26 08:49:00,44.1,42.2,32.15,NW,310,1.4,6.7,93,0.00,,,0.04,WUHU216HW,2013-05-26 12:49:00,
2013-05-26 09:04:00,45.4,42.7,32.15,NE,49,1.4,4.5,90,0.00,,,0.04,WUHU216HW,2013-05-26 13:04:00,
2013-05-26 09:19:00,46.1,43.7,32.15,East,82,1.1,2.7,91,0.00,,,0.04,WUHU216HW,2013-05-26 13:19:00,
2013-05-26 09:34:00,47.5,44.2,32.15,East,82,1.4,4.5,88,0.00,,,0.04,WUHU216HW,2013-05-26 13:34:00,
2013-05-26 09:49:00,49.0,44.7,32.16,West,260,2.1,5.6,85,0.00,,,0.04,WUHU216HW,2013-05-26 13:49:00,
2013-05-26 10:04:00,50.8,45.5,32.16,West,280,2.0,5.8,82,0.00,,,0.04,WUHU216HW,2013-05-26 14:04:00,
2013-05-26 10:19:00,50.8,44.5,32.16,West,274,2.0,5.4,79,0.00,,,0.04,WUHU216HW,2013-05-26 14:19:00,
2013-05-26 10:34:00,50.4,43.5,32.17,WNW,284,2.2,6.5,77,0.00,,,0.04,WUHU216HW,2013-05-26 14:34:00,
2013-05-26 10:49:00,50.4,44.1,32.17,WNW,290,1.6,4.9,79,0.00,,,0.04,WUHU216HW,2013-05-26 14:49:00,
2013-05-26 11:04:00,52.0,45.1,32.17,West,259,1.7,6.3,77,0.00,,,0.04,WUHU216HW,2013-05-26 15:04:00,
2013-05-26 11:19:00,52.6,43.8,32.17,WSW,247,2.7,6.9,72,0.00,,,0.04,WUHU216HW,2013-05-26 15:19:00,
2013-05-26 11:34:00,53.5,44.3,32.17,NW,305,1.9,5.1,71,0.00,,,0.04,WUHU216HW,2013-05-26 15:34:00,
2013-05-26 11:49:00,53.8,43.5,32.17,West,269,3.3,11.0,68,0.00,,,0.04,WUHU216HW,2013-05-26 15:49:00,
2013-05-26 12:04:00,54.4,42.4,32.18,WNW,300,2.6,7.4,64,0.00,,,0.04,WUHU216HW,2013-05-26 16:04:00,
2013-05-26 12:19:00,55.8,45.4,32.18,WNW,297,2.1,6.7,68,0.00,,,0.04,WUHU216HW,2013-05-26 16:19:00,
2013-05-26 12:34:00,56.0,43.9,32.19,NW,305,2.0,4.7,64,0.00,,,0.04,WUHU216HW,2013-05-26 16:34:00,
2013-05-26 12:49:00,56.2,44.6,32.19,ENE,57,2.4,5.1,65,0.00,,,0.04,WUHU216HW,2013-05-26 16:49:00,
2013-05-26 13:04:00,55.4,43.4,32.20,NW,326,1.7,6.3,64,0.00,,,0.04,WUHU216HW,2013-05-26 17:04:00,
2013-05-26 13:19:00,55.3,42.9,32.20,East,86,2.3,5.4,63,0.00,,,0.04,WUHU216HW,2013-05-26 17:19:00,
2013-05-26 13:34:00,56.0,42.8,32.20,ESE,121,2.1,4.9,61,0.00,,,0.04,WUHU216HW,2013-05-26 17:34:00,
2013-05-26 13:49:00,55.4,42.2,32.21,NNE,26,2.1,5.8,61,0.00,,,0.04,WUHU216HW,2013-05-26 17:49:00,
2013-05-26 14:04:00,55.3,42.9,32.21,ENE,71,1.3,4.5,63,0.00,,,0.04,WUHU216HW,2013-05-26 18:04:00,
2013-05-26 14:19:00,56.5,44.0,32.22,SE,138,1.3,3.4,63,0.00,,,0.04,WUHU216HW,2013-05-26 18:19:00,
2013-05-26 14:34:00,55.8,42.1,32.23,WNW,289,2.3,6.9,60,0.00,,,0.04,WUHU216HW,2013-05-26 18:34:00,
2013-05-26 14:49:00,55.8,42.6,32.23,NW,304,2.1,6.9,61,0.00,,,0.04,WUHU216HW,2013-05-26 18:49:00,
2013-05-26 15:04:00,55.8,42.1,32.23,NW,322,2.2,5.6,60,0.00,,,0.04,WUHU216HW,2013-05-26 19:04:00,
2013-05-26 15:19:00,55.8,42.6,32.24,ENE,70,1.8,4.7,61,0.00,,,0.04,WUHU216HW,2013-05-26 19:19:00,
2013-05-26 15:34:00,55.4,43.0,32.25,ENE,64,1.9,5.4,63,0.00,,,0.04,WUHU216HW,2013-05-26 19:34:00,
2013-05-26 15:49:00,54.7,42.8,32.26,NW,323,1.5,5.4,64,0.00,,,0.04,WUHU216HW,2013-05-26 19:49:00,
2013-05-26 16:04:00,55.1,42.3,32.26,SSW,210,1.5,3.8,62,0.00,,,0.04,WUHU216HW,2013-05-26 20:04:00,
2013-05-26 16:19:00,54.5,42.2,32.27,SE,125,2.2,4.7,63,0.00,,,0.04,WUHU216HW,2013-05-26 20:19:00,
2013-05-26 16:34:00,54.9,42.9,32.28,East,85,1.7,4.5,64,0.00,,,0.04,WUHU216HW,2013-05-26 20:34:00,
2013-05-26 16:49:00,54.5,41.3,32.29,NNW,328,2.3,8.5,61,0.00,,,0.04,WUHU216HW,2013-05-26 20:49:00,
2013-05-26 17:04:00,53.6,41.8,32.29,NE,36,1.6,4.7,64,0.00,,,0.04,WUHU216HW,2013-05-26 21:04:00,
2013-05-26 17:19:00,53.6,41.8,32.30,West,275,1.7,4.0,64,0.00,,,0.04,WUHU216HW,2013-05-26 21:19:00,
2013-05-26 17:34:00,52.9,41.4,32.30,West,281,2.0,6.9,65,0.00,,,0.04,WUHU216HW,2013-05-26 21:34:00,
2013-05-26 17:49:00,52.4,41.0,32.31,ESE,118,1.5,4.5,65,0.00,,,0.04,WUHU216HW,2013-05-26 21:49:00,
2013-05-26 18:04:00,52.2,40.8,32.31,WNW,297,2.1,6.3,65,0.00,,,0.04,WUHU216HW,2013-05-26 22:04:00,
2013-05-26 18:19:00,51.5,41.3,32.32,WNW,295,2.4,10.5,68,0.00,,,0.04,WUHU216HW,2013-05-26 22:19:00,
2013-05-26 18:34:00,51.1,41.3,32.33,ESE,122,0.9,2.0,69,0.00,,,0.04,WUHU216HW,2013-05-26 22:34:00,
2013-05-26 18:49:00,50.9,41.6,32.33,WSW,240,0.7,1.8,70,0.00,,,0.04,WUHU216HW,2013-05-26 22:49:00,
2013-05-26 19:04:00,50.2,41.2,32.34,SSW,192,1.7,5.4,71,0.00,,,0.04,WUHU216HW,2013-05-26 23:04:00,
2013-05-26 19:19:00,50.0,41.4,32.35,West,267,1.1,3.6,72,0.00,,,0.04,WUHU216HW,2013-05-26 23:19:00,
2013-05-26 19:34:00,49.5,40.9,32.36,NE,44,1.6,8.5,72,0.00,,,0.04,WUHU216HW,2013-05-26 23:34:00,
2013-05-26 19:49:00,49.0,40.6,32.36,ENE,71,1.1,2.5,73,0.00,,,0.04,WUHU216HW,2013-05-26 23:49:00,
2013-05-26 20:04:00,48.8,40.4,32.37,WSW,258,1.0,3.6,73,0.00,,,0.04,WUHU216HW,2013-05-27 00:04:00,
2013-05-26 20:19:00,48.6,40.6,32.37,NW,315,0.7,1.8,74,0.00,,,0.04,WUHU216HW,2013-05-27 00:19:00,
2013-05-26 20:34:00,48.1,40.4,32.38,WSW,249,0.9,1.8,75,0.00,,,0.04,WUHU216HW,2013-05-27 00:34:00,
2013-05-26 20:49:00,47.9,39.6,32.38,South,184,1.4,5.4,73,0.00,,,0.04,WUHU216HW,2013-05-27 00:49:00,
2013-05-26 21:04:00,47.9,40.2,32.38,NW,317,0.8,4.0,75,0.00,,,0.04,WUHU216HW,2013-05-27 01:04:00,
2013-05-26 21:19:00,47.3,39.8,32.38,WSW,244,2.0,5.4,75,0.00,,,0.04,WUHU216HW,2013-05-27 01:19:00,
2013-05-26 21:34:00,47.7,38.4,32.38,WNW,282,2.5,6.9,70,0.00,,,0.04,WUHU216HW,2013-05-27 01:34:00,
2013-05-26 21:49:00,48.2,37.4,32.37,West,280,2.5,7.6,66,0.00,,,0.04,WUHU216HW,2013-05-27 01:49:00,
2013-05-26 22:04:00,48.2,37.7,32.37,West,280,2.3,5.4,67,0.00,,,0.04,WUHU216HW,2013-05-27 02:04:00,
2013-05-26 22:19:00,49.0,36.9,32.36,WNW,302,3.0,10.7,63,0.00,,,0.04,WUHU216HW,2013-05-27 02:19:00,
2013-05-26 22:34:00,48.8,36.7,32.38,WNW,284,2.2,9.2,63,0.00,,,0.04,WUHU216HW,2013-05-27 02:34:00,
2013-05-26 22:49:00,48.6,36.5,32.37,NW,305,2.4,11.0,63,0.00,,,0.04,WUHU216HW,2013-05-27 02:49:00,
2013-05-26 23:04:00,49.0,36.6,32.38,West,268,1.7,4.7,62,0.00,,,0.04,WUHU216HW,2013-05-27 03:04:00,
2013-05-26 23:19:00,49.0,36.9,32.39,WNW,302,1.3,2.7,63,0.00,,,0.04,WUHU216HW,2013-05-27 03:19:00,
2013-05-26 23:34:00,48.4,37.2,32.40,NW,310,1.4,5.1,65,0.00,,,0.04,WUHU216HW,2013-05-27 03:34:00,
2013-05-26 23:49:00,47.9,37.8,32.40,WNW,292,0.7,1.6,68,0.00,,,0.04,WUHU216HW,2013-05-27 03:49:00,